Lid_Strength_Index
4 6 7 6 6 7 8 11 9 8 7 8 9 9 8 7 6 7 6 5 4 4 3 2 1 1 1 0 0 0 -0 -0 -0 0 0 1 1 -0 -1 -1 -2 -2 -2 -2
5 7 5 5 5 7 8 9 9 8 7 8 8 10 8 7 7 6 6 6 5 4 4 3 2 2 2 1 0 0 0 -0 -0 -0 -0 0 -0 -0 -0 -1 -2 -2 -2 -2
7 6 5 6 6 7 7 9 8 9 8 7 8 10 9 7 6 6 5 4 4 4 4 3 3 2 2 2 1 0 0 -0 -0 -1 -1 -0 -1 -0 0 -0 -0 -1 -1 -1
6 5 6 6 7 6 8 6 7 8 9 15 10 17 10 8 8 7 6 5 4 4 3 3 3 2 2 2 0 0 0 -0 -0 -1 -0 -0 1 1 0 0 -0 -0 -2 -1
6 6 6 7 6 5 7 6 6 7 8 11 12 14 14 8 9 8 6 5 5 4 3 3 3 2 1 1 1 0 0 0 -0 -0 -0 0 1 0 0 -0 -1 -1 -1 -2
5 4 5 5 5 5 5 6 7 7 8 13 9 10 12 10 8 7 6 5 4 4 4 3 2 2 2 1 1 1 1 0 -0 -0 -0 -0 0 0 0 1 1 0 -0 -0
6 6 5 4 6 5 6 7 11 12 12 13 9 11 10 7 6 6 6 5 4 3 4 3 3 2 2 2 1 1 1 1 0 0 0 0 0 -0 -0 1 0 -0 0 0
9 10 6 5 6 7 7 7 10 16 15 14 9 11 9 6 5 4 4 4 4 4 3 3 3 2 2 2 1 1 1 1 1 0 0 -0 -1 0 0 -0 0 0 0 -0
8 8 5 5 5 5 7 8 6 10 10 12 12 9 7 5 5 5 5 5 5 4 4 3 2 2 2 2 1 1 1 1 1 1 0 0 0 0 0 -0 -1 0 -0 -0
6 9 6 5 5 5 6 5 9 8 14 15 11 10 10 8 6 5 5 5 4 4 4 3 3 2 2 1 1 1 1 1 1 0 0 0 0 -0 -0 0 0 -0 -0 -1
5 7 8 6 7 7 7 8 7 8 9 12 13 11 6 6 6 6 5 5 4 4 4 3 3 2 2 1 1 1 1 1 1 1 1 0 0 -0 -0 -0 -0 -1 -1 -0
5 7 9 8 5 5 6 7 7 10 10 9 10 11 5 5 5 5 5 5 4 3 3 3 3 2 2 2 2 2 1 1 1 1 1 1 1 0 0 0 -0 -1 -0 -1
5 7 10 10 7 6 7 6 6 7 7 11 12 12 6 5 5 5 5 5 4 4 3 3 3 3 2 2 2 2 1 1 1 1 1 1 1 1 0 0 -0 -0 -0 -0
4 7 8 11 10 8 8 7 6 7 9 9 9 10 8 7 6 5 5 4 4 4 4 3 3 3 3 2 2 2 1 1 1 1 1 2 1 1 1 -0 -0 -0 -0 -0
5 8 7 7 7 7 7 7 7 8 7 9 8 8 7 6 6 5 4 4 4 4 4 4 4 3 3 3 2 1 1 1 1 2 1 1 0 0 1 1 -0 -0 -0 -0
5 8 7 8 7 7 8 7 7 7 7 7 7 8 5 5 4 5 5 5 5 4 4 4 4 3 3 3 2 2 1 1 1 1 1 1 0 -0 -0 -0 -0 -0 -0 -0
6 7 8 11 8 8 9 7 7 7 6 6 8 6 5 6 5 5 5 5 4 4 4 4 3 3 3 3 2 2 1 1 1 1 1 1 1 1 0 0 0 0 0 0
7 7 8 10 9 13 8 5 6 6 6 5 6 6 5 5 4 4 3 4 4 4 3 3 3 3 2 2 2 2 2 2 2 2 2 1 1 1 1 1 1 1 0 1
5 7 9 12 11 10 9 7 6 7 7 5 5 5 5 5 4 5 3 3 3 3 3 2 2 2 2 1 1 2 2 2 2 2 2 1 1 1 1 1 1 0 0 0
5 5 8 10 12 15 9 5 4 5 9 4 4 5 5 5 8 6 4 3 3 3 2 3 2 2 2 1 1 2 2 2 3 2 2 1 1 1 1 1 1 0 -0 1
8 8 10 10 12 10 6 5 4 10 8 4 4 4 5 6 5 4 3 3 3 3 3 2 2 3 2 1 1 2 2 2 1 1 1 1 1 1 1 1 1 0 0 1
9 10 10 9 11 12 4 5 8 5 4 4 4 4 4 4 4 4 3 3 3 3 3 2 2 2 1 1 1 2 2 1 0 1 1 1 1 1 1 1 1 1 1 1
11 8 9 8 8 5 4 4 3 3 3 4 3 3 3 4 4 4 4 3 3 2 2 2 2 2 1 1 1 2 2 1 1 1 1 1 2 1 1 1 2 2 2 2
6 5 8 7 6 5 4 3 3 3 3 3 3 3 3 4 4 4 3 3 3 2 2 2 2 2 2 1 1 1 1 1 1 2 2 2 3 3 1 1 1 2 2 2
9 7 7 7 5 4 4 3 3 3 3 3 3 3 3 3 3 3 3 3 2 2 2 2 2 2 2 1 2 1 1 1 2 2 1 1 1 2 5 5 5 2 5 6
6 8 8 8 6 5 4 3 3 3 3 3 3 3 3 3 3 3 3 2 2 2 2 2 2 2 1 2 1 1 1 1 2 4 3 2 1 1 1 3 4 11 11 12